Regional Weather Roundup
Issued by NWS

Home | Current Version | Previous Version | Graphics & Text | Print | Product List | Glossary On
Versions: 1 2 3 4 5 6 7 8 9 10 11 12 13 14 15 16 17 18 19 20 21 22 23 24 25 26 27 28 29 30 31 32 33 34 35 36 37 38 39 40 41 42 43 44 45 46 47 48 49 50
000
ASUS45 KBOU 020907
RWRCO

WEATHER ROUNDUP FOR COLORADO
NATIONAL WEATHER SERVICE DENVER/BOULDER CO
300 AM MDT MON MAY 02 2016

NOTE: "FAIR" INDICATES FEW OR NO CLOUDS BELOW 12000 FEET WITH NO
SIGNIFICANT WEATHER AND/OR OBSTRUCTIONS TO VISIBILITY.

COZ001>005-013-030-031-021000-
...NORTHWEST COLORADO...

CITY           SKY/WX    TMP DP  RH WIND       PRES   REMARKS
CRAIG          FAIR      32  23  69 W7        30.21R WCI  26
HAYDEN         FAIR      36  25  64 S5        30.20S
MEEKER         FAIR      36  29  75 NE5       30.20R
MOUNT WERNER   NOT AVBL
STEAMBOAT SPGS MOCLDY    32  24  72 NW3       30.21R
WALDEN         FAIR      18  14  86 SE6       30.26R WCI   9
$$

COZ006>008-011-021000-
...WEST CENTRAL VALLEYS...

CITY           SKY/WX    TMP DP  RH WIND       PRES   REMARKS
GRAND JUNCTION CLOUDY    46  39  76 SE10      30.17S
MONTROSE       CLOUDY    42  38  85 SE5       30.22S
EAGLE          CLOUDY    37  30  75 E3        30.23R
RIFLE          CLOUDY    45  40  82 CALM      30.18S
DELTA          NOT AVBL
NUCLA          NOT AVBL
$$

COZ017>023-064>068-021000-
...SOUTHWEST COLORADO...

CITY           SKY/WX    TMP DP  RH WIND       PRES   REMARKS
DURANGO        CLOUDY    37  35  92 E3        30.23F
CORTEZ         CLOUDY    42  35  76 SE6       30.21S
PAGOSA SPRINGS CLOUDY    34  34 100 CALM      30.24F
TELLURIDE      MOCLDY    31  31 100 CALM      30.25S FOG
WOLF CREEK PAS SNOW      21  21 100 SW14G20   30.29S VSB 1/4 WCI   8
$$

COZ009-010-012-014-032>034-037-058>063-021000-
...CENTRAL COLORADO...

CITY           SKY/WX    TMP DP  RH WIND       PRES   REMARKS
ASPEN          CLOUDY    34  27  75 CALM      30.20S
BUENA VISTA    FLURRIES  29  27  92 SE3       30.26S
COPPER MTN     NOT AVBL
BERTHOUD PASS  FAIR      12   3  67 N7        30.25S WCI   2
COTTONWOOD PAS FOG       28  25  86 CALM      30.25S VSB 1
GUNNISON       MOCLDY    34  28  80 CALM      30.25S
KREMMLING      FAIR      23  19  86 CALM      30.26R
LEADVILLE      CLOUDY    22  18  85 CALM      30.24S
MONARCH PASS   SNOW      19  18  93 MISG      30.35S VSB 1/4
SALIDA         CLOUDY    32  30  94 SE3       30.33F
SUNLIGHT       CLOUDY    28  28 100 CALM      30.29S
WILKERSON PASS FOG      N/A N/A N/A W5        30.26S VSB 3/4
$$

COZ069>075-021000-
...SAN LUIS VALLEY/SANGRE DE CRISTO MOUNTAINS...

CITY           SKY/WX    TMP DP  RH WIND       PRES   REMARKS
ALAMOSA        CLOUDY    34  28  79 E6        30.23F WCI  29
LA VETA PASS   CLOUDY    23  21  93 MISG      30.23S FOG
SAGUACHE       CLOUDY    32  30  93 E5        30.25S WCI  27
$$

COZ035-036-038>040-021000-
...NORTHERN COLORADO FRONT RANGE...

CITY           SKY/WX    TMP DP  RH WIND       PRES   REMARKS
DENVER INTL AP FAIR      31  24  75 SW8       30.26F WCI  23
DMNS CITY PARK   N/A     32  30  92 E7        30.26S WCI  25
AURORA         FAIR      28  27  95 S7        30.26F WCI  21
FRONT RANGE AP NOT AVBL
ERIE MUNI ARPT FAIR      28  28  99 CALM      30.27S
BOULDER MUN AP FAIR      34  32  93 CALM      30.27R
CENTENNIAL     FAIR      26  23  88 SE3       30.26F
BROOMFIELD     FAIR      32  30  93 N7        30.27S WCI  26
FORT COLLINS   FAIR      28  25  86 CALM      30.27F
LONGMONT       FAIR      31  27  84 CALM      30.29S
$$

COZ041-046-047-076>085-087-088-021000-
...PIKES PEAK/PALMER DIVIDE AND SOUTHERN FOOTHILLS...

CITY           SKY/WX    TMP DP  RH WIND       PRES   REMARKS
COLO. SPRINGS  MOCLDY    30  23  75 N3        30.27F
A. F. ACADEMY  FAIR      23  19  86 N7        30.25F WCI  15
SCHRIEVER AFB  NOT AVBL
ELLICOTT       NOT AVBL
FALCON         FAIR      25  20  80 W7        30.26F WCI  18
FORT CARSON    MOCLDY    32  30  93 NE3       30.25F
LIMON          FAIR      24  22  91 N6        30.26F WCI  17
MONUMENT HILL  FAIR      19  16  86 SW7       30.26F WCI  10
TRINIDAD       CLOUDY    34  31  88 W5        30.26F WCI  30
$$

COZ042>045-048>051-090-091-021000-
...NORTHEAST COLORADO...

CITY           SKY/WX    TMP DP  RH WIND       PRES   REMARKS
GREELEY ARPT   FAIR      28  27  93 NW5       30.27F WCI  23
AKRON          FAIR      31  25  78 W13       30.24F WCI  21
BURLINGTON     FAIR      29  24  82 W9        30.24F WCI  20
WRAY           NOT AVBL
STERLING       FAIR      30  28  93 SW7       30.24F WCI  23
HOLYOKE        NOT AVBL
FORT MORGAN    FAIR      29  26  89 W9        30.26S WCI  20
$$

COZ086-089-092>099-021000-
...SOUTHEAST COLORADO...

CITY           SKY/WX    TMP DP  RH WIND       PRES   REMARKS
PUEBLO         MOCLDY    36  31  82 NW6       30.27F
LA JUNTA       FAIR      33  30  88 NW7       30.27F WCI  27
LAMAR          FAIR      31  28  89 SW3       30.25F
SPRINGFIELD      N/A     31  30  96 W9        30.24F WCI  23
$$



USA.gov is the U.S. government's official web portal to all federal, state and local government web resources and services.